Location: Quedlinburg
(51.7921°N, 11.1414°E)
Time: 21:45:30
(UTC+02:00)

RS-15 - Pass Details

Date: 17 March 2026
Orbit: 1893 x 2152 km, 64.8° (Epoch: 17 April)

Event Time Altitude Azimuth Distance (km) Brightness Sun altitude
Rises 02:45:28 0° 308° (NW) 5,350 10.3 -31.5°
Reaches altitude 10° 02:48:49 10° 312° (NW) 4,377 9.8 -31.2°
Maximum altitude 03:00:01 60° 32° (NNE) 2,253 8.5 -30.0°
Drops below altitude 10° 03:11:44 10° 112° (ESE) 4,574 10.2 -28.6°
Sets 03:15:18 0° 116° (ESE) 5,602 10.7 -28.2°
